Weather in Yarkino

Russia / Krasnoyarsk Krai     59°07′45″N   99°23′50″E
temp.,
°C
wind,
m/s
gust,
m/s
humid.,
%
clouds,
%
prec.,
mm/h
press.,
hPa
HPBL,
m
6 may, thu
thu601:00−1e1193100 0.0 101314
04:00−1ese1196100 0.1 101234
07:00+1ene2398100 1.3 1011189
10:00+2ene468796 1.4 1010672
13:00+5nne346895 1.8 10101121
16:00+6n3460100 0.8 10121390
19:00+3n24785 1.0 1014115
22:00−4nne11950 0.0 101611
7 may, fri
fri701:00−5ne119698 0.0 101712
04:00−6ene11975 0.0 101814
07:00+1e24705 0.0 1018222
10:00+6se355699 0.0 10161048
13:00+9se475181 0.0 10141395
16:00+11sse5850100 0.0 10121663
19:00+8se511645 0.0 1011853
22:00+4se41475100 0.0 1010524
8 may, sat
sat801:00+3se41485100 0.0 1009493
04:00+2se31298100 2.4 1008625
07:00+2sse3898100 6.1 1008403
10:00+3s2797100 0.1 1009362
13:00+8wnw2475100 0.1 10091080
16:00+8w127695 0.2 1010702
19:00+5nw2496100 1.4 1011169
22:00+4e0096100 0.5 101112
9 may, sun
sun901:00+4ne119898 2.4 101013
04:00+3ne2398100 0.3 1010150
07:00+3ne2497100 0.3 1011242
10:00+6ne358897 0.1 1012644
13:00+7ne258692 0.2 1013504
16:00+10ene477296 0.9 10131210
19:00+9n2372100 1.4 101554
22:00+3ne3108431 0.0 1018197
10 may, mon
mon1001:00+2nne28905 0.0 1019145
04:00+1nne28925 0.0 1020146
07:00+5nne388089 0.0 1021332
10:00+9ne4660100 0.0 10211213
13:00+12ne4641100 0.0 10202210
16:00+13ne4640100 0.0 10201987
19:00+10ne3754100 0.0 1020340
22:00+5nne277810 0.0 1021147